Grand Rapids, MI

1:06 PM EDT on April 26, 2017 (GMT -0400)
Gerald R. Ford International

Weather History for KGRR - October, 2012

Change the Weather History Date:

Wednesday, October 10, 2012

  Actual Average Record
Temperature  
Mean Temperature 41 °F 53 °F  
Max Temperature 46 °F 63 °F 85 °F (1949)
Min Temperature 36 °F 44 °F 26 °F (1956)
Degree Days  
Heating Degree Days 24 12  
Month to date heating degree days 132 108  
Since 1 July heating degree days 266 260  
Cooling Degree Days 0 0  
Month to date cooling degree days 2 4  
Year to date cooling degree days 1037 696  
Moisture  
Dew Point 34 °F    
Average Humidity 69    
Maximum Humidity 93    
Minimum Humidity 45    
Precipitation  
Precipitation 0.19 in 0.11 in 1.44 in (1914)
Month to date precipitation 0.83 1.10  
Year to date precipitation 25.02 30.10  
Snow  
Snow T in 0.00 in T in (2012)
Month to date snowfall T 0.0  
Since 1 July snowfall T 0.0  
Since 1 September snowfall T 0.0  
Snow Depth 0.00 in    
Sea Level Pressure  
Sea Level Pressure 29.97 in    
Wind  
Wind Speed 9 mph (West)    
Max Wind Speed 23 mph    
Max Gust Speed 30 mph    
Visibility 9 miles    
Events Rain    
T = Trace of Precipitation, MM = Missing Value Source: NWS Daily Summary

Daily Weather History Graph

Daily Weather History Graph

Search for Another Location

Airport or City:

Trip Planner

Search our weather history database for the weather conditions in past years. The results will help you decide how hot, cold, wet, or windy it might be!

Date:

Astronomy

Oct. 10, 2012 Rise Set
Actual Time 7:50 AM EDT 7:06 PM EDT
Civil Twilight 7:21 AM EDT 7:35 PM EDT
Nautical Twilight 6:48 AM EDT 8:08 PM EDT
Astronomical Twilight 6:16 AM EDT 8:40 PM EDT
Moon 2:18 AM EDT (10/10) 4:15 PM EDT (10/10)
Length of Visible Light 12h 13m
Length of Day
11h 16m
Waning Crescent, 27% of the Moon is Illuminated
Oct 10
Waning Crescent
Oct 15
New
Oct 21
First Quarter
Oct 29
Full
Nov 6
Last Quarter

Hourly Weather History & Observations

Time (EDT) Temp. Windchill Dew Point Humidity Pressure Visibility Wind Dir Wind Speed Gust Speed Precip Events Conditions
12:30 AM 44.6 °F 37.4 °F 41.0 °F 87% 29.85 in 7.0 mi NW 16.1 mph 23.0 mph 0.05 in Rain Rain
12:53 AM 45.0 °F 40.6 °F 41.0 °F 86% 29.85 in 7.0 mi NW 8.1 mph - 0.08 in Rain Light Rain
1:53 AM 43.0 °F 37.7 °F 39.9 °F 89% 29.86 in 8.0 mi West 9.2 mph - 0.07 in Rain Light Rain
2:31 AM 42.8 °F 37.0 °F 39.2 °F 87% 29.86 in 6.0 mi West 10.4 mph - 0.03 in Rain Rain
2:53 AM 42.1 °F 37.1 °F 39.9 °F 92% 29.87 in 5.0 mi West 8.1 mph - 0.07 in Rain Rain
3:10 AM 42.8 °F 38.0 °F 39.2 °F 87% 29.86 in 6.0 mi West 8.1 mph - 0.03 in Rain Rain
3:40 AM 41.0 °F 37.1 °F 37.4 °F 87% 29.85 in 7.0 mi SSW 5.8 mph - 0.07 in Rain Light Rain
3:53 AM 41.0 °F 37.1 °F 37.9 °F 89% 29.86 in 10.0 mi SSW 5.8 mph - 0.07 in Rain Light Rain
4:53 AM 41.0 °F 37.1 °F 39.0 °F 93% 29.85 in 10.0 mi SSW 5.8 mph - N/A   Overcast
5:46 AM 41.0 °F 37.1 °F 39.2 °F 93% 29.85 in 10.0 mi SW 5.8 mph - N/A   Overcast
5:53 AM 41.0 °F 37.1 °F 39.0 °F 93% 29.86 in 10.0 mi SW 5.8 mph - N/A   Overcast
6:53 AM 42.1 °F 38.4 °F 39.0 °F 89% 29.88 in 10.0 mi SW 5.8 mph - N/A   Overcast
7:53 AM 43.0 °F 38.8 °F 39.9 °F 89% 29.89 in 10.0 mi WSW 6.9 mph - N/A   Mostly Cloudy
8:53 AM 44.1 °F 39.5 °F 39.0 °F 82% 29.92 in 10.0 mi WNW 8.1 mph - N/A   Mostly Cloudy
9:53 AM 45.0 °F 40.6 °F 37.9 °F 76% 29.94 in 10.0 mi West 8.1 mph - N/A   Mostly Cloudy
10:53 AM 45.0 °F 40.1 °F 37.9 °F 76% 29.96 in 10.0 mi WNW 9.2 mph - N/A   Overcast
11:53 AM 45.0 °F 38.9 °F 34.0 °F 65% 29.99 in 10.0 mi WNW 12.7 mph 27.6 mph 0.00 in   Overcast
12:53 PM 45.0 °F 38.2 °F 33.1 °F 63% 30.01 in 10.0 mi WNW 15.0 mph - N/A   Overcast
1:53 PM 45.0 °F 37.4 °F 28.0 °F 52% 30.02 in 10.0 mi West 18.4 mph 26.5 mph 0.00 in   Overcast
2:53 PM 44.1 °F 37.1 °F 28.0 °F 53% 30.04 in 10.0 mi WNW 15.0 mph 26.5 mph N/A   Overcast
3:53 PM 44.1 °F 35.9 °F 26.1 °F 49% 30.06 in 10.0 mi West 19.6 mph 28.8 mph N/A   Overcast
4:53 PM 45.0 °F 37.9 °F 26.1 °F 48% 30.06 in 10.0 mi WNW 16.1 mph 27.6 mph N/A   Overcast
5:53 PM 45.0 °F 38.2 °F 26.1 °F 48% 30.08 in 10.0 mi WNW 15.0 mph 23.0 mph N/A   Mostly Cloudy
6:53 PM 44.1 °F 37.7 °F 25.0 °F 47% 30.10 in 10.0 mi WNW 12.7 mph - N/A   Mostly Cloudy
7:53 PM 44.1 °F 40.1 °F 26.1 °F 49% 30.12 in 10.0 mi West 6.9 mph - N/A   Mostly Cloudy
8:53 PM 44.1 °F 42.5 °F 27.0 °F 51% 30.14 in 10.0 mi West 3.5 mph - N/A   Overcast
9:53 PM 43.0 °F 41.3 °F 28.9 °F 58% 30.15 in 10.0 mi SW 3.5 mph - N/A   Overcast
10:53 PM 39.9 °F 36.7 °F 30.9 °F 70% 30.16 in 10.0 mi SSW 4.6 mph - N/A   Mostly Cloudy
11:53 PM 37.0 °F 33.3 °F 30.0 °F 76% 30.17 in 10.0 mi South 4.6 mph - N/A   Scattered Clouds